Flag Weather past 2 weeks in Mesquite, Texas, U.S.A.

Now
50 °F

Sunny.


Feels Like: 47 °F
Forecast: 38 / 56 °F
Wind: 7 mph from North

Location: Mesquite Metro Airport

Current Time: Nov 27, 2014 at 11:36:38 AM

Latest Report: Nov 27, 2014 at 10:50 AM


Visibility: 10 mi

Pressure: 30.55 "Hg

Humidity: 32%

Dew point: 21 °F

Location of MesquiteLocation

Historic Weather in Mesquite — Graph

°F

Mesquite temperature yesterday

Maximum temperature yesterday: 64 °F (at 1:50 PM)
Minimum temperature yesterday: 36 °F (at 6:50 AM)
Average temperature yesterday: 47 °F

Past Weeks' High & Low Weather Summary

 TemperatureHumidityPressure
High75 °F (Nov 23, 1:50 PM)100% (Nov 15, 7:50 PM)30.61 "Hg (Nov 15, 7:50 PM)
Low21 °F (Nov 18, 6:50 AM)21% (Nov 18, 2:50 PM)29.40 "Hg (Nov 23, 2:50 PM)
Average44 °F66%30.19 "Hg
* Reported Nov 12 9:50 AM — Nov 27 9:50 AM, Mesquite, Weather by CustomWeather, © 2014

Note: Actual official high and low records may vary slightly from our data, if they occured in-between our weather recording intervals... More about our weather records

Advertising

Mesquite weather history for previous 24 hours

 ConditionsComfort  
Time TempWeatherWind HumidityBarometerVisibility
9:50 AM
Nov 27
45 °FSunny.5 mph46%30.56 "Hg10 mi
8:50 AM43 °FSunny.7 mph53%30.55 "Hg10 mi
7:50 AM39 °FSunny.6 mph61%30.53 "Hg10 mi
6:50 AM39 °FClear.7 mph61%30.50 "Hg10 mi
4:35 AM43 °FClear.8 mph55%30.47 "Hg10 mi
4:15 AM41 °FClear.8 mph58%30.47 "Hg10 mi
3:55 AM42 °FClear.7 mph57%30.48 "Hg10 mi
3:35 AM42 °FClear.5 mph58%30.48 "Hg10 mi
3:15 AM43 °FClear.6 mph52%30.47 "Hg10 mi
2:15 AM45 °FClear.8 mph47%30.44 "Hg10 mi
1:55 AM46 °FClear.9 mph47%30.42 "Hg10 mi
1:15 AM47 °FClear.8 mph47%30.41 "Hg10 mi
12:55 AM47 °FClear.12 mph48%30.40 "Hg10 mi
12:35 AM48 °FClear.8 mph54%30.40 "Hg10 mi
12:15 AM47 °FClear.7 mph53%30.40 "Hg10 mi
11:55 PM
Nov 26
47 °FClear.6 mph53%30.40 "Hg10 mi
11:35 PM47 °FClear.6 mph54%30.39 "Hg10 mi
11:15 PM46 °FClear.8 mph58%30.39 "Hg10 mi
10:55 PM49 °FClear.5 mph51%30.37 "Hg10 mi
10:35 PM50 °FClear.3 mph49%30.37 "Hg10 mi
10:15 PM50 °FClear.5 mph51%30.37 "Hg10 mi
9:55 PM51 °FClear.6 mph49%30.36 "Hg10 mi
9:15 PM52 °FClear.8 mph49%30.33 "Hg10 mi
8:55 PM52 °FClear.10 mph51%30.32 "Hg10 mi
7:55 PM52 °FThunderstorms. Overcast.2 mph50%30.30 "HgN/A
6:55 PM55 °FThunderstorms. Overcast.2 mph41%30.24 "HgN/A
5:50 PM55 °FThunderstorms. Overcast.2 mph41%30.24 "HgN/A
4:46 PM63 °FSunny.8 mph32%30.22 "Hg10 mi
3:50 PM64 °FSunny.12 mph28%30.20 "Hg10 mi
2:50 PM64 °FSunny.7 mph28%30.18 "Hg10 mi
1:50 PM64 °FSunny.7 mph28%30.15 "Hg10 mi
12:50 PM63 °FSunny.7 mph30%30.16 "Hg10 mi
11:50 AM59 °FSunny.8 mph29%30.16 "Hg10 mi
Weather by CustomWeather, © 2014

See weather overviewHow to use our weather pages